#timestamp,LO_Frequency,Hit,StdDev 
1509404415.1,286047001.8,N
1509404416.0,286047001.8,N
1509404435.8,286046996.8,N
1509404455.7,286046993.4,N
1509404475.5,286046997.7,N
1509404495.3,286046999.6,N
1509404515.2,286046995.3,N
1509404535.9,286046999.0,N
1509404555.7,286046995.0,N
1509404575.6,286046993.8,N
1509404595.4,286046998.0,N
1509404615.2,286046995.6,N
1509404635.1,286046996.5,N
1509404636.0,286046996.5,N
1509404655.8,286046990.9,N
1509404675.6,286046989.4,N
1509404695.5,286046993.5,N
1509404715.3,286046997.1,N
1509404735.1,286047000.7,N
1509404755.9,286047004.0,N
1509404775.7,286046998.1,N
1509404795.5,286046998.8,N
1509404815.4,286046999.4,N
1509404835.2,286047004.0,N
1509404855.1,286046999.7,N
1509404856.0,286046999.7,N
1509404875.8,286046998.8,N
1509404895.6,286047001.1,N
1509404915.5,286046999.7,N
1509404935.3,286047000.0,N
1509404955.1,286046998.4,N
1509404975.9,286047002.4,N
1509404995.7,286047000.4,N
1509405015.5,286047000.3,N
1509405035.4,286046999.5,N
1509405055.2,286046997.8,N
1509405075.0,286046997.9,N
1509405075.9,286046997.9,N
1509405095.8,286046999.4,N
1509405115.6,286047000.8,N
1509405135.4,286046996.5,N
1509405155.3,286047001.0,N
1509405175.1,286046998.1,N
1509405195.8,286046996.6,N
1509405215.7,286046999.3,N
1509405235.5,286047000.3,N
1509405255.3,286047002.4,N
1509405275.2,286046999.7,N
1509405295.9,286047001.7,N
1509405315.7,286047001.7,N
1509405335.6,286047005.8,Y
1509405355.4,286047005.9,P
1509405375.2,286047004.0,N
1509405395.1,286047002.2,N
1509405396.0,286047002.2,N
1509405415.8,286047003.4,N
1509405435.7,286047005.1,N
1509405455.5,286047007.2,Y
1509405475.3,286047000.7,P
1509405495.2,286046997.7,N
1509405515.9,286046998.8,N
1509405535.7,286047004.0,N
1509405555.6,286047000.2,N
1509405575.4,286046998.0,N
1509405595.2,286046991.7,Y
1509405615.1,286046990.3,P
1509405616.0,286046990.3,N
1509405635.8,286046988.1,N
1509405655.6,286046987.4,N
1509405675.5,286046989.9,N
1509405695.3,286046991.3,N
1509405715.2,286046990.8,N
1509405735.9,286046993.6,N
1509405755.7,286046995.7,N
1509405775.6,286046996.7,N
1509405795.4,286046996.1,N
1509405815.2,286046994.0,N
1509405835.1,286046993.2,N
1509405836.0,286046993.2,N
1509405855.8,286046989.2,Y
1509405875.6,286046998.2,P
1509405895.5,286047002.1,N
1509405915.3,286047003.1,N
1509405935.1,286047000.6,N
1509405955.9,286046999.1,N
1509405975.7,286046995.0,N
1509405995.5,286046999.1,N
1509406015.4,286046998.2,N
1509406035.2,286046997.4,N
1509406055.0,286047001.1,N
1509406055.9,286047001.1,N
1509406075.8,286047000.0,N
1509406095.6,286047001.0,N
1509406115.4,286046999.6,N
1509406135.3,286047000.2,N
1509406155.1,286047003.9,N
1509406175.8,286047003.2,N
1509406195.7,286047005.3,N
1509406215.5,286047002.3,N
1509406235.3,286047002.8,N
1509406255.2,286046998.7,N
1509406275.0,286047000.4,N
1509406275.9,286047000.4,N
1509406295.7,286046997.9,N
1509406315.6,286046997.5,N
1509406335.4,286046996.8,N
1509406355.2,286047000.0,N
1509406375.1,286047001.9,N
1509406376.0,286047001.9,N
1509406395.8,286047001.7,N
1509406415.7,286047005.1,N
1509406435.5,286047001.4,N
1509406455.3,286047004.5,N
1509406475.2,286046999.9,N
1509406495.9,286047000.2,N
1509406515.7,286047000.8,N
1509406535.6,286047000.8,N
1509406555.4,286047002.3,N
1509406575.2,286047002.0,N
1509406595.1,286047002.3,N
1509406596.0,286047002.3,N
1509406615.8,286046996.7,N
1509406635.6,286046996.1,N
1509406655.5,286046995.8,N
1509406675.3,286046995.8,N
1509406695.1,286046993.4,N
1509406715.9,286046997.4,N
1509406735.7,286046999.3,N
1509406755.5,286047000.2,N
1509406775.4,286047001.1,N
1509406795.2,286046998.6,N
1509406815.0,286046999.2,N
1509406815.9,286046999.2,N
1509406835.8,286047000.6,N
1509406855.6,286046998.4,N
1509406875.4,286046998.6,N
1509406895.3,286046997.3,N
1509406915.1,286046997.5,N
1509406935.8,286046995.3,N
1509406955.7,286046994.5,N
1509406975.5,286046993.8,N
1509406995.3,286046995.6,N
1509407015.2,286046995.7,N
1509407035.0,286046999.5,N
1509407035.9,286046999.5,N
1509407055.7,286046998.6,N
1509407075.6,286046997.2,N
1509407095.4,286046996.6,N
1509407115.3,286046991.7,Y
1509407135.1,286046997.8,P
1509407136.0,286046997.8,P
1509407155.8,286046997.0,P
1509407175.7,286046998.6,Y
1509407195.5,286046998.2,P
1509407215.3,286046999.9,N
1509407235.2,286047003.3,P
1509407255.0,286047003.1,N
1509407255.9,286047003.1,N
1509407275.7,286047003.9,N
1509407295.6,286047002.6,N
1509407315.4,286047004.1,N
1509407335.3,286047003.9,N
1509407355.1,286047003.3,N
1509407356.0,286047003.3,N
1509407375.8,286047007.2,Y
1509407395.7,286047006.0,P
1509407415.5,286047002.2,N
1509407435.3,286047002.7,N
1509407455.2,286047006.0,Y
1509407475.0,286046998.0,P
1509407475.9,286046998.0,N
1509407495.7,286046996.0,N
1509407515.6,286046996.4,N
1509407535.4,286046993.6,N
1509407555.2,286046996.3,N
1509407575.1,286046991.7,Y
1509407576.0,286046991.7,P
1509407595.8,286046998.8,N
1509407615.7,286047001.5,N
1509407635.5,286047002.1,N
1509407655.3,286047002.4,N
1509407675.2,286047002.0,N
1509407695.9,286047003.4,N
1509407715.7,286047003.2,N
1509407735.6,286047007.3,N
1509407755.4,286047009.1,N
1509407775.2,286047004.6,N
1509407795.1,286047007.6,N
1509407796.0,286047007.6,N
1509407815.8,286047006.2,N
1509407835.6,286047009.4,N
1509407855.5,286047011.7,N
1509407875.3,286047008.2,N
1509407895.1,286047007.5,N
1509407915.9,286047008.4,N
1509407935.7,286047008.1,N
1509407955.5,286047006.0,N
1509407975.4,286047005.1,N
1509407995.2,286047007.1,N
